KAL552 RJAA-RKSI

Flight info

Callsign KAL552
Flight time 2h 1m
Altitude 32000
Route ENPAR Y16 SAPRA Y685 GUKDO
Aircraft B77L/H-SDE2FGHIJ1J3J5M1P2RWXYZ/LB1D1

Departure

Time 2026-05-06 11:10
Airport Narita International Airport (RJAA)

Arrival

Time 2026-05-06 13:11
Airport Incheon International Airport (RKSI)
Time Latitude Longitude Altitude Speed Heading
2026-05-06 10:51 35.77002 140.37924 143 ft 0 kts 60°
2026-05-06 11:02 35.76997 140.37915 142 ft 2 kts 60°
2026-05-06 11:02 35.76990 140.37898 142 ft 2 kts 60°
2026-05-06 11:02 35.76982 140.37883 141 ft 2 kts 60°
2026-05-06 11:03 35.76975 140.37866 140 ft 2 kts 60°
2026-05-06 11:03 35.76970 140.37856 140 ft 2 kts 57°
2026-05-06 11:03 35.76960 140.37843 139 ft 2 kts 29°
2026-05-06 11:03 35.76947 140.37837 139 ft 2 kts
2026-05-06 11:04 35.76932 140.37837 139 ft 2 kts 344°
2026-05-06 11:04 35.76923 140.37842 139 ft 0 kts 329°
2026-05-06 11:04 35.76920 140.37843 139 ft 0 kts 329°
2026-05-06 11:05 35.76949 140.37823 139 ft 8 kts 330°
2026-05-06 11:06 35.77017 140.37775 138 ft 14 kts 329°
2026-05-06 11:06 35.77113 140.37705 137 ft 16 kts 329°
2026-05-06 11:06 35.77147 140.37592 134 ft 16 kts 240°
2026-05-06 11:06 35.77088 140.37471 133 ft 16 kts 238°
2026-05-06 11:07 35.77076 140.37354 132 ft 14 kts 310°
2026-05-06 11:07 35.77161 140.37285 131 ft 14 kts 329°
2026-05-06 11:07 35.77247 140.37222 130 ft 13 kts 329°
2026-05-06 11:07 35.77325 140.37158 130 ft 12 kts 305°
2026-05-06 11:08 35.77330 140.37062 131 ft 10 kts 242°
2026-05-06 11:08 35.77296 140.36997 133 ft 8 kts 238°
2026-05-06 11:08 35.77258 140.36958 133 ft 6 kts 181°
2026-05-06 11:08 35.77252 140.36961 133 ft 0 kts 151°
2026-05-06 11:09 35.77251 140.36963 133 ft 0 kts 149°
2026-05-06 11:09 35.77218 140.36986 133 ft 22 kts 149°
2026-05-06 11:09 35.76865 140.37242 135 ft 94 kts 149°
2026-05-06 11:09 35.76096 140.37797 143 ft 157 kts 149°
2026-05-06 11:10 35.75039 140.38562 429 ft 185 kts 149°
2026-05-06 11:10 35.73957 140.39363 1357 ft 181 kts 150°
2026-05-06 11:10 35.72916 140.40118 2278 ft 173 kts 152°
2026-05-06 11:10 35.71854 140.40884 2752 ft 183 kts 152°
2026-05-06 11:11 35.70766 140.41667 3374 ft 184 kts 153°
2026-05-06 11:11 35.69602 140.42503 3735 ft 202 kts 153°
2026-05-06 11:11 35.68324 140.43420 4030 ft 224 kts 152°
2026-05-06 11:11 35.66922 140.44428 4375 ft 245 kts 153°
2026-05-06 11:12 35.65397 140.45534 4884 ft 260 kts 152°
2026-05-06 11:12 35.63826 140.46655 5606 ft 265 kts 152°
2026-05-06 11:12 35.62251 140.47789 6345 ft 269 kts 152°
2026-05-06 11:12 35.60621 140.48961 7034 ft 274 kts 153°
2026-05-06 11:13 35.58966 140.50146 7777 ft 277 kts 153°
2026-05-06 11:13 35.57294 140.51352 8423 ft 282 kts 153°
2026-05-06 11:13 35.55588 140.52573 9113 ft 285 kts 155°
2026-05-06 11:13 35.53735 140.53302 9658 ft 283 kts 179°
2026-05-06 11:14 35.51806 140.53029 10236 ft 280 kts 204°
2026-05-06 11:14 35.50177 140.51823 10929 ft 274 kts 226°
2026-05-06 11:14 35.49015 140.49995 11684 ft 272 kts 238°
2026-05-06 11:14 35.48031 140.48045 12488 ft 272 kts 240°
2026-05-06 11:15 35.47137 140.46016 13200 ft 275 kts 250°
2026-05-06 11:15 35.46779 140.43712 13923 ft 280 kts 269°
2026-05-06 11:15 35.47137 140.41377 14751 ft 286 kts 288°
2026-05-06 11:15 35.48192 140.39265 15340 ft 305 kts 308°
2026-05-06 11:16 35.49929 140.37620 15823 ft 329 kts 323°
2026-05-06 11:16 35.51991 140.36203 16383 ft 344 kts 325°
2026-05-06 11:16 35.54094 140.34757 16862 ft 359 kts 326°
2026-05-06 11:16 35.56433 140.33473 17364 ft 380 kts 335°
2026-05-06 11:17 35.59025 140.32547 17932 ft 395 kts 339°
2026-05-06 11:17 35.61713 140.31668 18630 ft 403 kts 339°
2026-05-06 11:17 35.64457 140.30774 19327 ft 410 kts 338°
2026-05-06 11:17 35.67220 140.29872 19946 ft 419 kts 338°
2026-05-06 11:18 35.69989 140.28763 20551 ft 419 kts 329°
2026-05-06 11:18 35.72575 140.27110 21060 ft 420 kts 319°
2026-05-06 11:18 35.74896 140.24933 21665 ft 416 kts 309°
2026-05-06 11:18 35.76834 140.22371 22370 ft 409 kts 299°
2026-05-06 11:19 35.78385 140.19502 23070 ft 402 kts 290°
2026-05-06 11:19 35.79524 140.16415 23774 ft 396 kts 282°
2026-05-06 11:19 35.80306 140.13184 24595 ft 392 kts 278°
2026-05-06 11:19 35.81013 140.09964 25446 ft 392 kts 277°
2026-05-06 11:20 35.81713 140.06749 26242 ft 393 kts 277°
2026-05-06 11:20 35.82418 140.03500 27001 ft 395 kts 278°
2026-05-06 11:20 35.83123 140.00229 27804 ft 396 kts 277°
2026-05-06 11:20 35.83832 139.96948 28470 ft 400 kts 277°
2026-05-06 11:21 35.84555 139.93611 29129 ft 404 kts 278°
2026-05-06 11:21 35.85278 139.90289 29820 ft 407 kts 277°
2026-05-06 11:21 35.86013 139.86877 30501 ft 410 kts 277°
2026-05-06 11:21 35.86750 139.83479 31201 ft 411 kts 277°
2026-05-06 11:22 35.87483 139.80063 31986 ft 410 kts 277°
2026-05-06 11:22 35.88202 139.76709 32949 ft 403 kts 277°
2026-05-06 11:22 35.88909 139.73418 33977 ft 396 kts 276°
2026-05-06 11:22 35.89600 139.70186 34943 ft 390 kts 277°
2026-05-06 11:23 35.90287 139.66966 35843 ft 385 kts 277°
2026-05-06 11:23 35.90971 139.63745 36113 ft 391 kts 276°
2026-05-06 11:23 35.91655 139.60477 36113 ft 396 kts 275°
2026-05-06 11:24 35.92545 139.53885 36118 ft 388 kts 271°
2026-05-06 11:24 35.93347 139.47311 36121 ft 391 kts 271°
2026-05-06 11:25 35.94152 139.40704 36127 ft 388 kts 271°
2026-05-06 11:25 35.94952 139.34103 36135 ft 389 kts 271°
2026-05-06 11:26 35.95741 139.27580 36154 ft 388 kts 272°
2026-05-06 11:26 35.96535 139.20972 36149 ft 387 kts 271°
2026-05-06 11:27 35.97319 139.14406 36157 ft 390 kts 271°
2026-05-06 11:27 35.98100 139.07860 36156 ft 388 kts 271°
2026-05-06 11:28 35.98886 139.01222 36154 ft 390 kts 271°
2026-05-06 11:28 35.99662 138.94655 36155 ft 387 kts 271°
2026-05-06 11:29 36.00372 138.88083 36159 ft 385 kts 268°
2026-05-06 11:29 36.00491 138.81476 36160 ft 383 kts 265°
2026-05-06 11:30 36.00564 138.74924 36161 ft 384 kts 265°
2026-05-06 11:30 36.00634 138.68384 36174 ft 384 kts 265°
2026-05-06 11:31 36.00701 138.61795 36165 ft 385 kts 265°
2026-05-06 11:31 36.00764 138.55197 36160 ft 384 kts 265°
2026-05-06 11:32 36.00823 138.48605 36165 ft 385 kts 265°
2026-05-06 11:32 36.00879 138.41997 36156 ft 385 kts 265°
2026-05-06 11:33 36.00932 138.35442 36158 ft 385 kts 265°
2026-05-06 11:33 36.00980 138.28841 36177 ft 385 kts 265°
2026-05-06 11:34 36.01025 138.22278 36174 ft 383 kts 265°
2026-05-06 11:34 36.01066 138.15718 36174 ft 386 kts 265°
2026-05-06 11:35 36.01104 138.09061 36163 ft 386 kts 265°
2026-05-06 11:35 36.01138 138.02467 36167 ft 386 kts 265°
2026-05-06 11:36 36.01169 137.95871 36164 ft 384 kts 264°
2026-05-06 11:36 36.01195 137.89284 36158 ft 388 kts 264°
2026-05-06 11:37 36.01219 137.82660 36172 ft 386 kts 265°
2026-05-06 11:37 36.01239 137.76042 36182 ft 387 kts 264°
2026-05-06 11:38 36.01255 137.69435 36173 ft 385 kts 264°
2026-05-06 11:38 36.01266 137.62842 36178 ft 387 kts 265°
2026-05-06 11:39 36.01275 137.56232 36169 ft 387 kts 265°
2026-05-06 11:39 36.01281 137.49654 36167 ft 386 kts 264°
2026-05-06 11:40 36.01282 137.43013 36149 ft 384 kts 265°
2026-05-06 11:40 36.01279 137.36458 36144 ft 388 kts 264°
2026-05-06 11:41 36.01273 137.29797 36163 ft 386 kts 264°
2026-05-06 11:41 36.01263 137.23206 36158 ft 385 kts 264°
2026-05-06 11:42 36.01249 137.16621 36159 ft 384 kts 264°
2026-05-06 11:42 36.01231 137.10028 36150 ft 387 kts 264°
2026-05-06 11:43 36.01212 137.03439 36147 ft 384 kts 264°
2026-05-06 11:43 36.01186 136.96768 36145 ft 389 kts 264°
2026-05-06 11:44 36.01143 136.86870 36149 ft 388 kts 264°
2026-05-06 11:44 36.01109 136.80220 36156 ft 391 kts 263°
2026-05-06 11:45 36.01073 136.73526 36151 ft 390 kts 263°
2026-05-06 11:45 36.01031 136.66852 36151 ft 391 kts 264°
2026-05-06 11:46 36.00987 136.60152 36142 ft 391 kts 263°
2026-05-06 11:46 36.00937 136.53451 36134 ft 392 kts 264°
2026-05-06 11:47 36.00883 136.46729 36120 ft 397 kts 264°
2026-05-06 11:47 36.00829 136.39963 36115 ft 395 kts 263°
2026-05-06 11:48 36.00767 136.33142 36121 ft 397 kts 263°
2026-05-06 11:48 36.00703 136.26375 36117 ft 393 kts 263°
2026-05-06 11:49 36.00633 136.19562 36112 ft 400 kts 263°
2026-05-06 11:49 36.00561 136.12770 36109 ft 396 kts 264°
2026-05-06 11:50 36.00484 136.06001 36112 ft 399 kts 263°
2026-05-06 11:50 36.00402 135.99114 36112 ft 402 kts 263°
2026-05-06 11:51 36.00317 135.92235 36108 ft 401 kts 263°
2026-05-06 11:51 36.00226 135.85280 36093 ft 407 kts 264°
2026-05-06 11:52 36.00133 135.78354 36085 ft 405 kts 265°
2026-05-06 11:52 36.00034 135.71385 36075 ft 409 kts 265°
2026-05-06 11:53 35.99931 135.64365 36078 ft 413 kts 265°
2026-05-06 11:53 35.99823 135.57291 36074 ft 414 kts 265°
2026-05-06 11:54 35.99709 135.50156 36066 ft 418 kts 266°
2026-05-06 11:54 35.99591 135.42982 36064 ft 421 kts 266°
2026-05-06 11:55 35.99467 135.35724 36054 ft 422 kts 267°
2026-05-06 11:55 35.99338 135.28401 36073 ft 425 kts 266°
2026-05-06 11:56 35.99205 135.21114 36062 ft 432 kts 267°
2026-05-06 11:56 35.99065 135.13727 36057 ft 429 kts 267°
2026-05-06 11:57 35.98918 135.06355 36058 ft 431 kts 267°
2026-05-06 11:57 35.98779 134.98910 36046 ft 438 kts 267°
2026-05-06 11:58 35.98617 134.91379 36050 ft 433 kts 268°
2026-05-06 11:58 35.98455 134.83971 36051 ft 441 kts 268°
2026-05-06 11:59 35.98291 134.76460 36051 ft 438 kts 268°
2026-05-06 11:59 35.98117 134.68930 36044 ft 441 kts 268°
2026-05-06 12:00 35.97948 134.61389 36046 ft 440 kts 269°
2026-05-06 12:00 35.97768 134.53818 36049 ft 439 kts 269°
2026-05-06 12:01 35.97550 134.46257 36056 ft 443 kts 269°
2026-05-06 12:01 35.97378 134.38709 36050 ft 443 kts 270°
2026-05-06 12:02 35.97181 134.31049 36058 ft 450 kts 270°
2026-05-06 12:02 35.96990 134.23326 36041 ft 449 kts 270°
2026-05-06 12:03 35.96786 134.15654 36045 ft 453 kts 270°
2026-05-06 12:03 35.96553 134.07890 36046 ft 449 kts 269°
2026-05-06 12:04 35.96333 134.00143 36042 ft 456 kts 270°
2026-05-06 12:04 35.96124 133.92380 36062 ft 452 kts 270°
2026-05-06 12:05 35.95892 133.84605 36057 ft 454 kts 270°
2026-05-06 12:05 35.95644 133.76799 36056 ft 456 kts 270°
2026-05-06 12:06 35.95398 133.68980 36055 ft 458 kts 270°
2026-05-06 12:06 35.95143 133.61098 36049 ft 456 kts 270°
2026-05-06 12:07 35.94888 133.53250 36050 ft 460 kts 271°
2026-05-06 12:07 35.94632 133.45392 36044 ft 459 kts 270°
2026-05-06 12:08 35.94367 133.37549 36049 ft 458 kts 271°
2026-05-06 12:08 35.94095 133.29651 36049 ft 460 kts 270°
2026-05-06 12:09 35.93818 133.21773 36049 ft 459 kts 270°
2026-05-06 12:09 35.93536 133.13899 36053 ft 459 kts 270°
2026-05-06 12:10 35.93252 133.06094 36046 ft 461 kts 270°
2026-05-06 12:10 35.92959 132.98190 36049 ft 461 kts 270°
2026-05-06 12:11 35.92660 132.90266 36051 ft 461 kts 270°
2026-05-06 12:11 35.92355 132.82338 36044 ft 460 kts 270°
2026-05-06 12:12 35.92048 132.74487 36047 ft 460 kts 270°
2026-05-06 12:12 35.91736 132.66629 36046 ft 459 kts 270°
2026-05-06 12:13 35.91421 132.58812 36046 ft 459 kts 270°
2026-05-06 12:13 35.91098 132.50961 36044 ft 457 kts 271°
2026-05-06 12:14 35.90773 132.43133 36045 ft 459 kts 271°
2026-05-06 12:14 35.90442 132.35309 36037 ft 459 kts 270°
2026-05-06 12:15 35.90104 132.27469 36041 ft 458 kts 270°
2026-05-06 12:15 35.89760 132.19577 36048 ft 459 kts 270°
2026-05-06 12:16 35.89415 132.11783 36047 ft 456 kts 270°
2026-05-06 12:16 35.89062 132.03903 36043 ft 461 kts 270°
2026-05-06 12:17 35.88704 131.96078 36044 ft 457 kts 270°
2026-05-06 12:17 35.88341 131.88223 36044 ft 457 kts 270°
2026-05-06 12:18 35.87978 131.80486 36042 ft 457 kts 270°
2026-05-06 12:18 35.87608 131.72693 36041 ft 458 kts 270°
2026-05-06 12:19 35.87231 131.64900 36038 ft 454 kts 270°
2026-05-06 12:19 35.86853 131.57143 36035 ft 457 kts 270°
2026-05-06 12:20 35.86465 131.49315 36032 ft 453 kts 271°
2026-05-06 12:20 35.86076 131.41557 36032 ft 457 kts 271°
2026-05-06 12:21 35.85682 131.33818 36032 ft 452 kts 270°
2026-05-06 12:21 35.85282 131.26013 36038 ft 456 kts 270°
2026-05-06 12:22 35.84878 131.18286 36037 ft 452 kts 270°
2026-05-06 12:22 35.84469 131.10515 36038 ft 455 kts 270°
2026-05-06 12:23 35.84055 131.02762 36030 ft 452 kts 270°
2026-05-06 12:23 35.83638 130.95027 36028 ft 454 kts 270°
2026-05-06 12:24 35.83215 130.87302 36030 ft 454 kts 270°
2026-05-06 12:24 35.82789 130.79617 36024 ft 452 kts 270°
2026-05-06 12:25 35.82508 130.71890 36026 ft 449 kts 277°
2026-05-06 12:25 35.83343 130.64345 36013 ft 444 kts 283°
2026-05-06 12:26 35.84331 130.56836 36018 ft 446 kts 282°
2026-05-06 12:26 35.85299 130.49309 36013 ft 444 kts 282°
2026-05-06 12:27 35.86251 130.41812 35999 ft 442 kts 282°
2026-05-06 12:27 35.87197 130.34297 35999 ft 442 kts 282°
2026-05-06 12:28 35.88129 130.26820 36006 ft 442 kts 282°
2026-05-06 12:28 35.89061 130.19315 36016 ft 445 kts 282°
2026-05-06 12:29 35.89988 130.11804 36008 ft 442 kts 282°
2026-05-06 12:29 35.90900 130.04366 36010 ft 443 kts 282°
2026-05-06 12:30 35.91813 129.96876 35998 ft 440 kts 282°
2026-05-06 12:30 35.92718 129.89424 36010 ft 443 kts 282°
2026-05-06 12:31 35.93620 129.81941 36002 ft 439 kts 281°
2026-05-06 12:31 35.94516 129.74486 36009 ft 443 kts 281°
2026-05-06 12:32 35.95408 129.67017 36008 ft 438 kts 281°
2026-05-06 12:32 35.96287 129.59611 36015 ft 443 kts 281°
2026-05-06 12:33 35.97226 129.52132 36016 ft 438 kts 285°
2026-05-06 12:33 35.99310 129.45097 36002 ft 437 kts 299°
2026-05-06 12:34 36.02625 129.38930 36002 ft 433 kts 306°
2026-05-06 12:34 36.06137 129.32872 36013 ft 435 kts 305°
2026-05-06 12:35 36.09652 129.26787 36011 ft 432 kts 305°
2026-05-06 12:35 36.13131 129.20747 36024 ft 432 kts 304°
2026-05-06 12:36 36.16604 129.14705 36025 ft 434 kts 304°
2026-05-06 12:36 36.20085 129.08635 36027 ft 432 kts 304°
2026-05-06 12:37 36.23562 129.02562 36032 ft 433 kts 304°
2026-05-06 12:37 36.27027 128.96498 36041 ft 435 kts 304°
2026-05-06 12:38 36.30493 128.90424 36024 ft 430 kts 304°
2026-05-06 12:38 36.33937 128.84374 36015 ft 430 kts 304°
2026-05-06 12:39 36.37376 128.78325 36016 ft 429 kts 304°
2026-05-06 12:39 36.40778 128.72330 35426 ft 423 kts 304°
2026-05-06 12:40 36.42451 128.69377 34667 ft 423 kts 303°
2026-05-06 12:40 36.44133 128.66408 34265 ft 415 kts 303°
2026-05-06 12:40 36.45774 128.63509 33958 ft 405 kts 303°
2026-05-06 12:40 36.47367 128.60690 33569 ft 402 kts 303°
2026-05-06 12:41 36.48992 128.57809 33179 ft 418 kts 303°
2026-05-06 12:41 36.50672 128.54831 32742 ft 423 kts 303°
2026-05-06 12:41 36.52348 128.51857 32284 ft 419 kts 303°
2026-05-06 12:41 36.54013 128.48903 31843 ft 414 kts 303°
2026-05-06 12:42 36.55651 128.45993 31408 ft 411 kts 303°
2026-05-06 12:42 36.57277 128.43100 30965 ft 409 kts 303°
2026-05-06 12:42 36.58894 128.40222 30531 ft 408 kts 302°
2026-05-06 12:42 36.60508 128.37347 30094 ft 407 kts 302°
2026-05-06 12:43 36.62117 128.34480 29658 ft 406 kts 301°
2026-05-06 12:43 36.63742 128.31583 29233 ft 404 kts 302°
2026-05-06 12:43 36.65374 128.28722 28808 ft 401 kts 302°
2026-05-06 12:43 36.66980 128.25909 28380 ft 399 kts 302°
2026-05-06 12:44 36.68568 128.23125 27949 ft 396 kts 302°
2026-05-06 12:44 36.70170 128.20312 27502 ft 393 kts 302°
2026-05-06 12:44 36.71725 128.17581 27069 ft 390 kts 302°
2026-05-06 12:44 36.73283 128.14841 26635 ft 387 kts 302°
2026-05-06 12:45 36.74834 128.12111 26197 ft 384 kts 302°
2026-05-06 12:45 36.76370 128.09404 25753 ft 382 kts 302°
2026-05-06 12:45 36.79406 128.04048 24874 ft 377 kts 302°
2026-05-06 12:46 36.80922 128.01370 24428 ft 374 kts 302°
2026-05-06 12:46 36.82409 127.98740 23996 ft 372 kts 302°
2026-05-06 12:46 36.83898 127.96107 23563 ft 371 kts 302°
2026-05-06 12:46 36.85381 127.93478 23128 ft 370 kts 302°
2026-05-06 12:47 36.86862 127.90852 22684 ft 367 kts 302°
2026-05-06 12:47 36.88302 127.88294 22258 ft 363 kts 302°
2026-05-06 12:47 36.89742 127.85735 21830 ft 361 kts 302°
2026-05-06 12:47 36.91189 127.83161 21384 ft 360 kts 302°
2026-05-06 12:48 36.92616 127.80621 20946 ft 358 kts 302°
2026-05-06 12:48 36.94048 127.78072 20511 ft 355 kts 302°
2026-05-06 12:48 36.95449 127.75584 20079 ft 353 kts 302°
2026-05-06 12:48 36.96854 127.73084 19641 ft 350 kts 302°
2026-05-06 12:49 36.98242 127.70615 19202 ft 348 kts 302°
2026-05-06 12:49 36.99635 127.68134 18684 ft 347 kts 302°
2026-05-06 12:49 37.01000 127.65700 18201 ft 345 kts 302°
2026-05-06 12:49 37.02369 127.63258 17768 ft 342 kts 302°
2026-05-06 12:50 37.03726 127.60833 17295 ft 340 kts 302°
2026-05-06 12:50 37.05087 127.58396 16813 ft 338 kts 302°
2026-05-06 12:50 37.06333 127.55962 16323 ft 335 kts 293°
2026-05-06 12:50 37.07098 127.53098 16018 ft 360 kts 282°
2026-05-06 12:51 37.07654 127.50014 15748 ft 364 kts 282°
2026-05-06 12:51 37.08198 127.46917 15485 ft 365 kts 282°
2026-05-06 12:51 37.08739 127.43819 15226 ft 364 kts 281°
2026-05-06 12:51 37.09269 127.40778 14978 ft 362 kts 281°
2026-05-06 12:52 37.09809 127.37683 14726 ft 361 kts 281°
2026-05-06 12:52 37.10347 127.34613 14479 ft 360 kts 281°
2026-05-06 12:52 37.10878 127.31595 14184 ft 358 kts 281°
2026-05-06 12:52 37.11414 127.28559 13948 ft 358 kts 281°
2026-05-06 12:53 37.11952 127.25506 13710 ft 357 kts 281°
2026-05-06 12:53 37.12489 127.22474 13471 ft 357 kts 281°
2026-05-06 12:53 37.13023 127.19466 13234 ft 355 kts 281°
2026-05-06 12:53 37.13550 127.16472 13043 ft 354 kts 281°
2026-05-06 12:54 37.14083 127.13451 13014 ft 352 kts 281°
2026-05-06 12:54 37.14607 127.10483 13011 ft 354 kts 281°
2026-05-06 12:54 37.15144 127.07451 13010 ft 354 kts 281°
2026-05-06 12:54 37.15672 127.04464 13008 ft 354 kts 281°
2026-05-06 12:55 37.16198 127.01456 13009 ft 354 kts 281°
2026-05-06 12:55 37.16722 126.98454 13006 ft 354 kts 281°
2026-05-06 12:55 37.17252 126.95411 12933 ft 355 kts 281°
2026-05-06 12:55 37.17767 126.92454 12706 ft 348 kts 281°
2026-05-06 12:56 37.18270 126.89535 12468 ft 337 kts 281°
2026-05-06 12:56 37.18763 126.86704 12233 ft 327 kts 281°
2026-05-06 12:56 37.19239 126.83946 12000 ft 318 kts 281°
2026-05-06 12:56 37.19692 126.81297 11761 ft 312 kts 281°
2026-05-06 12:57 37.20149 126.78628 11526 ft 313 kts 281°
2026-05-06 12:57 37.20609 126.75951 11285 ft 312 kts 281°
2026-05-06 12:57 37.21144 126.73349 11035 ft 309 kts 290°
2026-05-06 12:57 37.22154 126.70989 10586 ft 309 kts 300°
2026-05-06 12:58 37.23280 126.68746 10389 ft 298 kts 300°
2026-05-06 12:58 37.24371 126.66591 10312 ft 285 kts 300°
2026-05-06 12:58 37.25420 126.64527 10217 ft 274 kts 300°
2026-05-06 12:58 37.26422 126.62550 10111 ft 262 kts 300°
2026-05-06 12:59 37.27383 126.60654 9838 ft 258 kts 300°
2026-05-06 12:59 37.28345 126.58752 9497 ft 257 kts 300°
2026-05-06 12:59 37.29301 126.56862 9179 ft 256 kts 300°
2026-05-06 12:59 37.30239 126.55005 8872 ft 254 kts 300°
2026-05-06 13:00 37.31185 126.53131 8567 ft 252 kts 300°
2026-05-06 13:00 37.32118 126.51279 8263 ft 250 kts 300°
2026-05-06 13:00 37.33044 126.49436 7964 ft 249 kts 300°
2026-05-06 13:00 37.33960 126.47613 7672 ft 247 kts 300°
2026-05-06 13:01 37.34878 126.45787 7383 ft 251 kts 300°
2026-05-06 13:01 37.35819 126.43913 7080 ft 257 kts 300°
2026-05-06 13:01 37.36779 126.42000 6763 ft 257 kts 299°
2026-05-06 13:01 37.37736 126.40095 6460 ft 256 kts 299°
2026-05-06 13:02 37.38689 126.38222 6160 ft 255 kts 299°
2026-05-06 13:02 37.39631 126.36333 5859 ft 253 kts 299°
2026-05-06 13:02 37.40627 126.34541 5551 ft 255 kts 311°
2026-05-06 13:02 37.42015 126.33109 5259 ft 256 kts 320°
2026-05-06 13:03 37.43460 126.31815 4963 ft 255 kts 321°
2026-05-06 13:03 37.44912 126.30535 4665 ft 254 kts 320°
2026-05-06 13:03 37.46341 126.29266 4379 ft 254 kts 320°
2026-05-06 13:03 37.47789 126.27969 4081 ft 253 kts 320°
2026-05-06 13:04 37.49223 126.26687 3781 ft 253 kts 320°
2026-05-06 13:04 37.50658 126.25407 3483 ft 252 kts 320°
2026-05-06 13:04 37.52074 126.24146 3218 ft 250 kts 320°
2026-05-06 13:04 37.53469 126.22900 3154 ft 240 kts 319°
2026-05-06 13:05 37.54843 126.21782 3093 ft 232 kts 332°
2026-05-06 13:05 37.56415 126.21506 2992 ft 229 kts
2026-05-06 13:05 37.57879 126.22223 2987 ft 230 kts 35°
2026-05-06 13:05 37.59030 126.23624 2985 ft 230 kts 51°
2026-05-06 13:06 37.60007 126.25240 2989 ft 231 kts 55°
2026-05-06 13:06 37.60934 126.26872 2986 ft 230 kts 55°
2026-05-06 13:06 37.61792 126.28583 2970 ft 228 kts 72°
2026-05-06 13:06 37.61945 126.30441 2975 ft 207 kts 106°
2026-05-06 13:07 37.61354 126.32033 2966 ft 193 kts 135°
2026-05-06 13:07 37.60426 126.33206 2972 ft 190 kts 141°
2026-05-06 13:07 37.59425 126.34285 2723 ft 188 kts 150°
2026-05-06 13:07 37.58357 126.35204 2474 ft 183 kts 152°
2026-05-06 13:08 37.57340 126.36092 2228 ft 170 kts 151°
2026-05-06 13:08 37.56398 126.36923 2006 ft 162 kts 151°
2026-05-06 13:08 37.55480 126.37734 1778 ft 158 kts 151°
2026-05-06 13:08 37.54584 126.38532 1562 ft 157 kts 151°
2026-05-06 13:09 37.53725 126.39294 1358 ft 145 kts 150°
2026-05-06 13:09 37.52902 126.40022 1163 ft 144 kts 150°
2026-05-06 13:09 37.52097 126.40738 964 ft 140 kts 149°
2026-05-06 13:09 37.51294 126.41451 769 ft 143 kts 149°
2026-05-06 13:10 37.50477 126.42167 566 ft 142 kts 148°
2026-05-06 13:10 37.49666 126.42889 370 ft 141 kts 148°
2026-05-06 13:10 37.48873 126.43594 161 ft 141 kts 148°
2026-05-06 13:10 37.48067 126.44308 40 ft 133 kts 146°
2026-05-06 13:11 37.47395 126.44903 36 ft 103 kts 144°
2026-05-06 13:11 37.46909 126.45335 35 ft 69 kts 144°
2026-05-06 13:11 37.46565 126.45642 35 ft 50 kts 144°
2026-05-06 13:11 37.46371 126.45892 35 ft 31 kts 118°
2026-05-06 13:12 37.46298 126.46089 35 ft 17 kts 110°
2026-05-06 13:12 37.46339 126.46208 35 ft 15 kts 38°
2026-05-06 13:12 37.46415 126.46300 35 ft 14 kts 52°
2026-05-06 13:12 37.46474 126.46404 35 ft 14 kts 54°
2026-05-06 13:13 37.46530 126.46504 35 ft 13 kts 54°
2026-05-06 13:13 37.46584 126.46599 35 ft 13 kts 54°
2026-05-06 13:13 37.46636 126.46690 35 ft 10 kts 54°
2026-05-06 13:13 37.46640 126.46751 35 ft 6 kts 120°
2026-05-06 13:14 37.46611 126.46783 35 ft 5 kts 144°
2026-05-06 13:14 37.46594 126.46799 35 ft 0 kts 144°